EN

Hourly Weather Altlu?heim

Today, 25 January, Monday

Time Temperature Precipitation Wind Pressure Humidity
00:00 -1°C° 0 mm 2 mps 741 mmHg 80%
01:00 +1°C° 0 mm 2 mps 741 mmHg 85%
02:00 +1°C° 0.1 mm 2 mps 740 mmHg 86%
03:00 +2°C° 0.1 mm 1 mps 740 mmHg 88%
04:00 +1°C° 0.1 mm 1 mps 740 mmHg 90%
05:00 +1°C° 0.7 mm 1 mps 740 mmHg 92%
06:00 +1°C° 0.7 mm 1 mps 740 mmHg 95%
07:00 +1°C° 0 mm 1 mps 741 mmHg 96%
08:00 +2°C° 0.5 mm 1 mps 741 mmHg 96%
09:00 +1°C° 0.5 mm 0 mps 742 mmHg 95%
10:00 +1°C° 0.5 mm 0 mps 742 mmHg 95%
11:00 +2°C° 0.1 mm 1 mps 743 mmHg 94%
12:00 +3°C° 0.1 mm 1 mps 743 mmHg 92%
13:00 +3°C° 0.1 mm 1 mps 743 mmHg 91%
14:00 +3°C° 0.1 mm 1 mps 744 mmHg 91%
15:00 +3°C° 0.1 mm 1 mps 745 mmHg 91%
16:00 +3°C° 0.1 mm 1 mps 745 mmHg 91%
17:00 +2°C° 0.1 mm 2 mps 746 mmHg 92%
18:00 +1°C° 0.1 mm 2 mps 747 mmHg 93%
19:00 +1°C° 0.1 mm 2 mps 748 mmHg 94%
20:00 +1°C° 0 mm 2 mps 749 mmHg 92%
21:00 -1°C° 0 mm 2 mps 749 mmHg 91%
22:00 -1°C° 0 mm 2 mps 750 mmHg 90%
23:00 -1°C° 0 mm 2 mps 751 mmHg 89%

Tomorrow, 26 January, Tuesday

Time Temperature Precipitation Wind Pressure Humidity
00:00 -1°C° 0 mm 2 mps 751 mmHg 88%
01:00 -2°C° 0 mm 3 mps 751 mmHg 88%
02:00 -2°C° 0 mm 3 mps 752 mmHg 88%
03:00 -3°C° 0 mm 4 mps 752 mmHg 88%
04:00 -4°C° 0 mm 5 mps 752 mmHg 87%
05:00 -2°C° 0.2 mm 5 mps 753 mmHg 87%
06:00 -3°C° 0.2 mm 6 mps 753 mmHg 87%
07:00 -2°C° 0.2 mm 6 mps 753 mmHg 86%
08:00 -2°C° 0.1 mm 6 mps 753 mmHg 85%
09:00 -2°C° 0.1 mm 6 mps 754 mmHg 84%
10:00 -1°C° 0.1 mm 6 mps 754 mmHg 83%
11:00 -1°C° 0.1 mm 6 mps 754 mmHg 81%
12:00 -1°C° 0.1 mm 6 mps 755 mmHg 80%
13:00 +1°C° 0.1 mm 6 mps 755 mmHg 78%
14:00 +1°C° 0 mm 6 mps 755 mmHg 79%
15:00 -1°C° 0 mm 6 mps 755 mmHg 81%
16:00 0°C° 0 mm 5 mps 756 mmHg 82%
17:00 0°C° 0 mm 5 mps 756 mmHg 84%
18:00 -1°C° 0 mm 4 mps 756 mmHg 85%
19:00 -1°C° 0 mm 4 mps 757 mmHg 86%
20:00 0°C° 0 mm 3 mps 757 mmHg 87%
21:00 0°C° 0 mm 3 mps 757 mmHg 87%
22:00 0°C° 0 mm 3 mps 758 mmHg 87%
23:00 0°C° 0 mm 3 mps 758 mmHg 88%

Day after tomorrow, 27 January, Wednesday

Time Temperature Precipitation Wind Pressure Humidity
00:00 -1°C° 0 mm 3 mps 758 mmHg 88%
01:00 -1°C° 0 mm 3 mps 757 mmHg 89%
02:00 -1°C° 0 mm 3 mps 757 mmHg 89%
03:00 +1°C° 0 mm 2 mps 757 mmHg 89%
04:00 +1°C° 0 mm 2 mps 757 mmHg 89%
05:00 +1°C° 0 mm 2 mps 756 mmHg 90%
06:00 -1°C° 0 mm 2 mps 756 mmHg 90%
07:00 -1°C° 0 mm 2 mps 756 mmHg 90%
08:00 +1°C° 0 mm 2 mps 756 mmHg 86%
09:00 +1°C° 0 mm 2 mps 756 mmHg 83%
10:00 +1°C° 0 mm 2 mps 756 mmHg 79%
11:00 +1°C° 0 mm 3 mps 756 mmHg 77%
12:00 +2°C° 0 mm 3 mps 755 mmHg 75%
13:00 +2°C° 0 mm 3 mps 755 mmHg 72%
14:00 +2°C° 0 mm 3 mps 755 mmHg 75%
15:00 +2°C° 0 mm 3 mps 754 mmHg 78%
16:00 +2°C° 0 mm 3 mps 754 mmHg 81%
17:00 +1°C° 0 mm 4 mps 754 mmHg 85%
18:00 0°C° 0 mm 4 mps 754 mmHg 89%
19:00 0°C° 0 mm 4 mps 754 mmHg 93%
20:00 0°C° 0 mm 4 mps 754 mmHg 93%
21:00 0°C° 0 mm 4 mps 754 mmHg 93%
22:00 +2°C° 0 mm 3 mps 753 mmHg 93%
23:00 +2°C° 0.2 mm 3 mps 753 mmHg 93%

28 January, Thursday

Time Temperature Precipitation Wind Pressure Humidity
00:00 +2°C° 0.2 mm 3 mps 753 mmHg 93%
01:00 +2°C° 0.2 mm 3 mps 752 mmHg 93%
02:00 +2°C° 0.3 mm 3 mps 752 mmHg 93%
03:00 +2°C° 0.3 mm 3 mps 751 mmHg 94%
04:00 +3°C° 0.3 mm 3 mps 750 mmHg 94%
05:00 +3°C° 0.8 mm 3 mps 749 mmHg 95%
06:00 +3°C° 0.8 mm 3 mps 748 mmHg 95%
07:00 +3°C° 0.8 mm 3 mps 747 mmHg 96%
08:00 +4°C° 1.6 mm 3 mps 746 mmHg 96%
09:00 +4°C° 1.6 mm 4 mps 746 mmHg 96%
10:00 +5°C° 1.6 mm 4 mps 745 mmHg 96%
11:00 +6°C° 0.8 mm 5 mps 745 mmHg 94%
12:00 +7°C° 0.8 mm 6 mps 745 mmHg 92%
13:00 +9°C° 0.8 mm 7 mps 745 mmHg 90%
14:00 +9°C° 0.2 mm 7 mps 745 mmHg 89%
15:00 +9°C° 0.2 mm 6 mps 745 mmHg 89%
16:00 +9°C° 0.2 mm 6 mps 746 mmHg 88%
17:00 +9°C° 0.1 mm 6 mps 746 mmHg 87%
18:00 +9°C° 0.1 mm 6 mps 747 mmHg 87%
19:00 +9°C° 0.1 mm 5 mps 748 mmHg 87%
20:00 +8°C° 0 mm 5 mps 748 mmHg 87%
21:00 +8°C° 0 mm 5 mps 748 mmHg 88%
22:00 +8°C° 0 mm 5 mps 748 mmHg 88%
23:00 +8°C° 0 mm 5 mps 748 mmHg 89%

29 January, Friday

Time Temperature Precipitation Wind Pressure Humidity
00:00 +8°C° 0 mm 5 mps 748 mmHg 89%
01:00 +9°C° 0 mm 6 mps 747 mmHg 90%
02:00 +9°C° 0.1 mm 6 mps 746 mmHg 88%
03:00 +9°C° 0.1 mm 6 mps 745 mmHg 86%
04:00 +9°C° 0.1 mm 6 mps 744 mmHg 85%
05:00 +9°C° 1 mm 7 mps 743 mmHg 86%
06:00 +9°C° 1 mm 7 mps 743 mmHg 88%
07:00 +10°C° 1 mm 8 mps 742 mmHg 89%
08:00 +10°C° 0.5 mm 7 mps 742 mmHg 85%
09:00 +10°C° 0.5 mm 7 mps 742 mmHg 82%
10:00 +10°C° 0.5 mm 6 mps 743 mmHg 78%
11:00 +10°C° 0 mm 6 mps 743 mmHg 73%
12:00 +10°C° 0 mm 6 mps 743 mmHg 69%
13:00 +10°C° 0 mm 6 mps 744 mmHg 64%
14:00 +10°C° 0 mm 5 mps 743 mmHg 67%
15:00 +10°C° 0 mm 4 mps 743 mmHg 69%
16:00 +10°C° 0 mm 4 mps 743 mmHg 72%
17:00 +9°C° 0.2 mm 3 mps 743 mmHg 77%
18:00 +9°C° 0.2 mm 3 mps 742 mmHg 81%
19:00 +8°C° 0.2 mm 3 mps 742 mmHg 86%
20:00 +8°C° 1.3 mm 2 mps 741 mmHg 89%
21:00 +8°C° 1.3 mm 2 mps 741 mmHg 92%
22:00 +8°C° 1.3 mm 1 mps 740 mmHg 95%
23:00 +8°C° 2.9 mm 1 mps 739 mmHg 95%

30 January, Saturday

Time Temperature Precipitation Wind Pressure Humidity
00:00 +8°C° 2.9 mm 1 mps 738 mmHg 95%
01:00 +8°C° 2.9 mm 1 mps 737 mmHg 95%
02:00 +7°C° 1.7 mm 2 mps 736 mmHg 95%
03:00 +5°C° 1.7 mm 3 mps 736 mmHg 94%
04:00 +5°C° 1.7 mm 4 mps 735 mmHg 93%
05:00 +5°C° 2.4 mm 4 mps 737 mmHg 92%
06:00 +5°C° 2.4 mm 4 mps 739 mmHg 91%
07:00 +5°C° 2.4 mm 5 mps 740 mmHg 90%
08:00 +4°C° 0.2 mm 4 mps 742 mmHg 88%
09:00 +4°C° 0.2 mm 4 mps 744 mmHg 87%
10:00 +3°C° 0.2 mm 3 mps 745 mmHg 86%
11:00 +3°C° 0.2 mm 3 mps 746 mmHg 79%
12:00 +3°C° 0.2 mm 3 mps 746 mmHg 73%
13:00 +3°C° 0.2 mm 3 mps 747 mmHg 67%
14:00 +4°C° 0 mm 2 mps 747 mmHg 63%
15:00 +4°C° 0 mm 2 mps 748 mmHg 60%
16:00 +5°C° 0 mm 1 mps 749 mmHg 57%
17:00 +5°C° 0 mm 1 mps 750 mmHg 60%
18:00 +4°C° 0 mm 1 mps 750 mmHg 64%
19:00 +3°C° 0 mm 1 mps 751 mmHg 68%
20:00 +3°C° 0 mm 1 mps 752 mmHg 71%
21:00 +3°C° 0 mm 1 mps 753 mmHg 73%
22:00 +2°C° 0 mm 1 mps 753 mmHg 75%
23:00 +2°C° 0 mm 1 mps 753 mmHg 77%
Show more